Flag for Guinea Weather past 2 weeks in Boké, Guinea

Now
75 °F

Passing clouds.


Feels Like: 75 °F
Forecast: 64 / 105 °F
Wind: 2 mph from North

Location: Conakry / Gbessia

Current Time: Mar 30, 2015 at 2:51:46 AM

Latest Report: Mar 30, 2015 at 2:00 AM


Visibility: N/A

Pressure: 29.89 "Hg

Humidity: 89%

Dew point: 72 °F

Location of BokéLocation

Historic Weather in Boké — Graph

°F

Boké temperature yesterday

Maximum temperature yesterday: 86 °F (at 3:00 PM)
Minimum temperature yesterday: 73 °F (at 3:00 AM)
Average temperature yesterday: 78 °F

Past Weeks' High & Low Weather Summary

 TemperatureHumidityPressure
High95 °F (Mar 19, 2:00 PM)100% (Mar 15, 6:00 AM)30.01 "Hg (Mar 15, 6:00 AM)
Low73 °F (Mar 26, 12:00 AM)34% (Mar 16, 2:00 PM)29.68 "Hg (Mar 20, 4:00 PM)
Average81 °F73%29.84 "Hg
* Reported Mar 15 2:00 AM — Mar 30 1:00 AM, Boké, Weather by CustomWeather, © 2015

Note: Actual official high and low records may vary slightly from our data, if they occured in-between our weather recording intervals... More about our weather records

Advertising

Boké weather history for previous 24 hours

 ConditionsComfort  
Time TempWeatherWind HumidityBarometerVisibility
1:00 AM
Mon, Mar 30
75 °FPassing clouds.5 mph89%29.89 "HgN/A
12:00 AM77 °FPassing clouds.5 mph83%29.92 "HgN/A
11:00 PM
Sun, Mar 29
77 °FClear.2 mph79%29.92 "Hg10 mi
10:00 PM77 °FClear.2 mph79%29.89 "Hg10 mi
9:00 PM77 °FClear.5 mph74%29.83 "Hg10 mi
8:00 PM79 °FClear.5 mph79%29.83 "Hg10 mi
7:00 PM81 °FSunny.5 mph74%29.83 "Hg10 mi
6:00 PM82 °FSunny.7 mph62%29.80 "Hg10 mi
3:00 PM86 °FPassing clouds.12 mph52%29.86 "HgN/A
2:00 PM84 °FPassing clouds.9 mph58%29.86 "HgN/A
1:00 PM84 °FPassing clouds.9 mph58%29.89 "HgN/A
9:00 AM77 °FPartly sunny.5 mph79%29.95 "HgN/A
8:00 AM75 °FPartly sunny.5 mph78%29.95 "HgN/A
7:00 AM73 °FPartly sunny.5 mph83%29.92 "HgN/A
6:00 AM73 °FPassing clouds.2 mph83%29.92 "HgN/A
5:00 AM73 °FPassing clouds.2 mph83%29.92 "HgN/A
4:00 AM73 °FPassing clouds.2 mph83%29.92 "HgN/A
3:00 AM73 °FPassing clouds.5 mph83%29.92 "HgN/A
2:00 AM75 °FPassing clouds.5 mph78%29.95 "HgN/A
Weather by CustomWeather, © 2015

See weather overviewHow to use our weather pages